Weather History for Manchester, NH

Change the Weather History Date:

Thursday, July 24, 2014

  Actual Average Record
Temperature  
Mean Temperature 74 °F -  
Max Temperature 82 °F 82 °F 95 °F (1978)
Min Temperature 64 °F 57 °F 44 °F (1949)
Cooling Degree Days 10    
Growing Degree Days 24 (Base 50)    
Moisture  
Dew Point 61 °F    
Average Humidity 69    
Maximum Humidity 93    
Minimum Humidity 39    
Precipitation  
Precipitation 0.00 in - - ()
Sea Level Pressure  
Sea Level Pressure 29.83 in    
Wind  
Wind Speed 6 mph (NNW)    
Max Wind Speed 13 mph    
Max Gust Speed 22 mph    
Visibility 10 miles    
Events Rain    
Averages and records for this station are not official NWS values.
T = Trace of Precipitation, MM = Missing Value Source: NWS Daily Summary

Daily Weather History Graph

Daily Weather History Graph

Search for Another Location

Airport:

Trip Planner

Search our weather history database for the weather conditions in past years. The results will help you decide how hot, cold, wet, or windy it might be!

Date:

Astronomy

Jul. 24, 2014 Rise Set
Actual Time 5:28 AM EDT 8:15 PM EDT
Civil Twilight 4:55 AM EDT 8:48 PM EDT
Nautical Twilight 4:13 AM EDT 9:29 PM EDT
Astronomical Twilight 3:25 AM EDT 10:17 PM EDT
Moon 3:34 AM EDT (7/24) 6:27 PM EDT (7/24)
Length of Visible Light 15h 52m
Length of Day
14h 46m
Waning Crescent, 5% of the Moon is Illuminated
Jul 24
Waning Crescent
Jul 26
New
Aug 3
First Quarter
Aug 10
Full
Aug 17
Last Quarter

Hourly Weather History & Observations

Time (EDT) Temp. Heat Index Dew Point Humidity Pressure Visibility Wind Dir Wind Speed Gust Speed Precip Events Conditions
12:12 AM 72.0 °F - 69.1 °F 91% 29.76 in 9.0 mi Calm Calm - 0.00 in Rain Light Rain
12:22 AM 71.1 °F - 69.1 °F 93% 29.75 in 10.0 mi South 4.6 mph - 0.00 in Rain Light Rain
12:53 AM 71.1 °F - 69.1 °F 93% 29.78 in 2.0 mi SW 4.6 mph - 0.00 in   Overcast
1:53 AM 72.0 °F - 69.1 °F 91% 29.78 in 10.0 mi Calm Calm - 0.00 in Rain Light Rain
2:53 AM 72.0 °F - 69.1 °F 91% 29.78 in 10.0 mi Variable 3.5 mph - 0.00 in   Light Drizzle
3:53 AM 70.0 °F - 66.9 °F 90% 29.78 in 10.0 mi NNW 4.6 mph - 0.00 in   Light Drizzle
4:53 AM 69.1 °F - 66.0 °F 90% 29.80 in 10.0 mi WNW 6.9 mph - 0.00 in   Overcast
5:53 AM 69.1 °F - 64.9 °F 87% 29.82 in 10.0 mi North 4.6 mph - N/A   Overcast
6:53 AM 69.1 °F - 64.0 °F 84% 29.82 in 10.0 mi NNW 9.2 mph - N/A   Overcast
7:26 AM 69.1 °F - 64.0 °F 84% 29.80 in 10.0 mi NNW 10.4 mph - N/A   Overcast
7:53 AM 70.0 °F - 63.0 °F 78% 29.83 in 10.0 mi NNW 8.1 mph - N/A   Overcast
8:53 AM 70.0 °F - 64.0 °F 81% 29.85 in 10.0 mi NNW 8.1 mph - N/A   Overcast
9:21 AM 71.1 °F - 63.0 °F 75% 29.81 in 10.0 mi NNW 9.2 mph - N/A   Overcast
9:53 AM 72.0 °F - 63.0 °F 73% 29.85 in 10.0 mi NNW 11.5 mph - N/A   Overcast
10:11 AM 73.0 °F - 62.1 °F 68% 29.83 in 10.0 mi NW 10.4 mph - N/A   Overcast
10:53 AM 73.9 °F - 61.0 °F 64% 29.86 in 10.0 mi NNW 11.5 mph - N/A   Overcast
11:26 AM 73.9 °F - 61.0 °F 64% 29.83 in 10.0 mi North 11.5 mph - N/A   Overcast
11:53 AM 75.0 °F - 61.0 °F 62% 29.86 in 10.0 mi North 11.5 mph - N/A   Overcast
12:53 PM 75.9 °F - 61.0 °F 60% 29.86 in 10.0 mi NNE 6.9 mph - N/A   Mostly Cloudy
1:53 PM 80.1 °F 80.7 °F 59.0 °F 48% 29.85 in 10.0 mi NNW 12.7 mph - N/A   Mostly Cloudy
2:53 PM 79.0 °F - 59.0 °F 50% 29.84 in 10.0 mi West 8.1 mph - N/A   Mostly Cloudy
3:53 PM 81.0 °F 80.7 °F 55.0 °F 41% 29.85 in 10.0 mi NW 10.4 mph - N/A   Mostly Cloudy
4:53 PM 81.0 °F 80.5 °F 54.0 °F 39% 29.84 in 10.0 mi WNW 12.7 mph 21.9 mph N/A   Mostly Cloudy
5:53 PM 80.1 °F 80.0 °F 54.0 °F 40% 29.85 in 10.0 mi NNW 10.4 mph 17.3 mph N/A   Scattered Clouds
6:53 PM 78.1 °F - 53.1 °F 42% 29.85 in 10.0 mi NW 8.1 mph - N/A   Scattered Clouds
7:53 PM 75.0 °F - 54.0 °F 48% 29.87 in 10.0 mi NW 11.5 mph - N/A   Scattered Clouds
8:53 PM 72.0 °F - 55.0 °F 55% 29.89 in 10.0 mi NNW 9.2 mph - N/A   Scattered Clouds
9:53 PM 70.0 °F - 54.0 °F 57% 29.91 in 10.0 mi NNW 8.1 mph - N/A   Partly Cloudy
10:53 PM 68.0 °F - 55.0 °F 63% 29.92 in 10.0 mi NNW 6.9 mph - N/A   Partly Cloudy
11:53 PM 64.9 °F - 55.0 °F 70% 29.93 in 10.0 mi NW 4.6 mph - N/A   Clear